{"data":{"norad_id":62070,"epoch":"2026-05-25T04:00:03.998880Z","epoch_age_seconds":63724,"freshness":"FRESH","line1":"1 62070U 24217P   26145.16671295  .00023655  00000+0  70915-3 0  9991","line2":"2 62070  53.1588 198.6268 0001521  83.9171 177.9650 15.34395116  5755","mean_motion":15.34395116,"eccentricity":0.0001521,"inclination_deg":53.1588,"raan_deg":198.6268,"arg_perigee_deg":83.9171,"mean_anomaly_deg":177.965,"bstar":0.00070915,"rev_number":575,"period_min":93.848056799993,"perigee_km":461.6772625144,"apogee_km":463.75825053133,"semimajor_km":6840.8547565229,"source":"CELESTRAK","updated_at":"2026-05-25T13:38:19.553326Z"}}